OPS 4682 DEB, 51487

Orbit data source: Space-Track

OPS 4682 DEB, 51487 is space debris in LEO originally from a launch on Sat, 03 Apr 1965 UTC launched from the Air Force Western Test Range (AFWTR). Debris objects in space refer to the collection of defunct objects orbiting the Earth. Examples of debris include non-operational satellites, rocket bodies, and fragments generated from explosions, collisions, or faulty payload assembly.

Loading next visibility...
Identifier
51487, 1965-027FX
Orbit
LEO
Country
Flag of USUS
Related business
Manufacturer
Unknown
Mission
Spacecraft
Bus & Motor
Unknown
Mass
Unknown
Launch date (UTC)
1965-04-03 (61 years ago)
Launch vehicle
Unknown
Launch site
Air Force Western Test Range (AFWTR)
Object type
Payload
Rocket body
Debris
Shape & HBR
Unknown
Radar Cross Section
Medium (>0.1 m² and <1 m²)

Expand to show TLE details & history
Last TLE update: 15 hours ago

TLE from 15 hours ago
0 OPS 4682 DEB
1 51487U 65027FX  26208.42114977  .00000188  00000-0  63455-3 0  9991
2 51487  90.2346   7.5871 0027779  55.4408 332.5488 12.95968758568762
Epoch: 2026-07-27T10:06Z
TLE epoch observation values (Epoch: 2026-07-27T10:06:27.340Z)
Latitude
27.87991°
Longitude
-89.25527°
Altitude
1,262.48 km
Speed
7.235 km/s
True Right ascension
00h 29m 51s
True Declination
27° 44' 51"
Sunlit
Object was in daylight at epoch
Visualization orbit readout
Latitude
Unknown
Longitude
Unknown
Altitude
Unknown
Speed
Unknown
Apparent Right ascension
Unknown
Apparent Declination
Unknown
Sunlit
N/A
Visualization observer readout
Local Sidereal Time
14:10:59
Azimuth
Unknown
Elevation
Unknown
Doppler factor
Unknown
Orbital elements
Apogee altitude
1,296.315 km
Perigee altitude
1,253.795 km
Semi-major axis
7,653.192 km
Eccentricity
0.00278
Inclination
90.2346°
RAAN
7.5871°
Arg. of periapsis
55.4408°
True anomaly
332.4016°
Mean anomaly
332.5488°
Eccentric anomaly
332.47525°
Mean motion
3.24175 °/min
Orbital period
111.05 mins
BSTAR
0.00063455
Loading maneuver chart data...
Computing Atmospheric mass density...
Loading historical data...
Loading historical data...
Loading historical data...
Loading historical data...
Loading historical data...
Loading historical data...
Loading historical data...

Documentation

Showing up to 5 results
|